Starlink 5801

operational
NORAD ID: 56005 Int'l Des: 2023-042 Owner: SPXS Country: US Constellation: starlink
LEOCIRCULAR

Über Starlink 5801

Beschreibung wird geladen...

Live-Position

3D-Globus wird geladen...

Nächste Überflüge

Höhenverlauf

Altitude vs Time

uPlot chart will show altitude changes over time

Zweizeiliger Elementsatz

1 56005U 23042V 25303.00021089 -.00000279 00000-0 -56027-5 0 9995
2 56005 43.0038 46.0378 0000946 263.1715 96.9020 15.02543800143257
Epoch: 30. Okt. 2025 • Age: 28 hours

Aktueller Status

Höhe 560.7 km
Geschwindigkeit 7.59 km/s
Subsatellitenpunkt 33.00°N, 80.87°E
Startdatum 24. März 2023
Alter 2.6 years
Typ internet

Technische Details

Klassifizierung Payload
Masse 305.00 kg
Trockenmasse 290.00 kg
Gesamtmasse 305.00 kg
Länge 0.20 m
Durchmesser 2.80 m
Spannweite 9.00 m
Form Box + pan
Hersteller SPXS
Bus-Typ Starlink
Phasenstatus In Orbit
Besitzer/Staat SPXS/US

Große Konstellationen

Loading constellations...